�������l�o���
Date,Time,MP-1(��Sv/h),MP-2(��Sv/h),MP-3(��Sv/h),MP-4(��Sv/h),MP-5(��Sv/h),MP-6(��Sv/h),MP-7(��Sv/h),MP-8(��Sv/h),����,����(m/s),���J
2023/05/31,00:00,0.548,0.820,0.497,0.997,0.723,0.326,0.579,0.542,�k,2.0,��
2023/05/31,00:10,0.550,0.820,0.495,0.994,0.724,0.326,0.579,0.542,�k�k��,2.8,��
2023/05/31,00:20,0.549,0.821,0.495,0.996,0.725,0.327,0.578,0.542,�k�k��,2.8,��
2023/05/31,00:30,0.549,0.821,0.494,0.995,0.724,0.326,0.578,0.541,�k��,3.3,��
2023/05/31,00:40,0.549,0.817,0.495,0.997,0.725,0.326,0.578,0.542,�k�k��,3.2,��
2023/05/31,00:50,0.550,0.819,0.495,0.998,0.726,0.326,0.578,0.540,�k,3.0,��
2023/05/31,01:00,0.549,0.820,0.496,0.995,0.724,0.327,0.579,0.542,�k,2.6,��
2023/05/31,01:10,0.552,0.819,0.495,0.998,0.723,0.326,0.579,0.539,�k�k��,3.6,��
2023/05/31,01:20,0.550,0.818,0.494,0.996,0.724,0.327,0.578,0.542,�k,4.1,��
2023/05/31,01:30,0.551,0.819,0.495,0.996,0.723,0.325,0.577,0.541,�k,4.6,��
2023/05/31,01:40,0.550,0.819,0.495,0.994,0.724,0.326,0.578,0.541,�k,5.5,��
2023/05/31,01:50,0.549,0.818,0.496,0.996,0.723,0.325,0.577,0.541,�k,6.4,��
2023/05/31,02:00,0.549,0.819,0.495,0.996,0.724,0.325,0.579,0.541,�k,6.8,��
2023/05/31,02:10,0.548,0.818,0.496,0.997,0.724,0.325,0.578,0.542,�k,5.8,��
2023/05/31,02:20,0.551,0.819,0.495,0.997,0.724,0.325,0.577,0.540,�k,5.9,��
2023/05/31,02:30,0.548,0.819,0.495,0.997,0.724,0.325,0.577,0.541,�k,4.7,��
2023/05/31,02:40,0.550,0.821,0.496,0.996,0.722,0.325,0.577,0.542,�k,5.5,��
2023/05/31,02:50,0.548,0.818,0.493,0.996,0.725,0.325,0.577,0.543,�k,5.0,��
2023/05/31,03:00,0.548,0.819,0.495,0.994,0.723,0.324,0.579,0.542,�k,4.8,��
2023/05/31,03:10,0.549,0.820,0.494,0.996,0.725,0.326,0.578,0.542,�k,5.6,��
2023/05/31,03:20,0.550,0.818,0.494,0.996,0.725,0.325,0.577,0.542,�k,5.3,��
2023/05/31,03:30,0.549,0.818,0.495,0.995,0.723,0.327,0.577,0.542,�k�k��,4.9,��
2023/05/31,03:40,0.549,0.820,0.493,0.996,0.722,0.327,0.577,0.542,�k�k��,5.2,��
2023/05/31,03:50,0.547,0.819,0.493,0.997,0.724,0.326,0.577,0.541,�k,4.7,��
2023/05/31,04:00,0.548,0.820,0.494,0.995,0.723,0.326,0.575,0.540,�k,3.8,��
2023/05/31,04:10,0.548,0.820,0.495,0.996,0.725,0.326,0.577,0.542,�k�k��,3.9,��
2023/05/31,04:20,0.549,0.819,0.496,0.997,0.723,0.325,0.578,0.542,�k�k��,3.6,��
2023/05/31,04:30,0.550,0.819,0.494,0.997,0.722,0.325,0.576,0.540,�k��,3.3,��
2023/05/31,04:40,0.549,0.818,0.494,0.998,0.724,0.326,0.577,0.541,�k�k��,3.3,��
2023/05/31,04:50,0.550,0.817,0.495,0.995,0.724,0.328,0.576,0.541,�k�k��,3.3,��
2023/05/31,05:00,0.550,0.820,0.494,0.995,0.724,0.327,0.576,0.541,�k��,3.5,��
2023/05/31,05:10,0.550,0.818,0.496,0.997,0.724,0.326,0.577,0.541,�k�k��,3.3,��
2023/05/31,05:20,0.549,0.819,0.494,0.998,0.722,0.325,0.577,0.542,�k�k��,3.5,��
2023/05/31,05:30,0.550,0.817,0.495,0.995,0.724,0.324,0.577,0.541,�k�k��,4.4,��
2023/05/31,05:40,0.549,0.818,0.493,0.998,0.724,0.325,0.576,0.540,�k�k��,3.9,��
2023/05/31,05:50,0.551,0.819,0.495,0.996,0.725,0.327,0.577,0.543,�k�k��,3.7,��
2023/05/31,06:00,0.550,0.819,0.494,0.996,0.724,0.327,0.577,0.542,�k�k��,3.4,��
2023/05/31,06:10,0.550,0.818,0.496,0.998,0.724,0.325,0.576,0.541,�k�k��,3.4,��
2023/05/31,06:20,0.549,0.818,0.496,0.996,0.723,0.325,0.578,0.541,�k�k��,3.0,��
2023/05/31,06:30,0.550,0.819,0.494,0.998,0.722,0.326,0.575,0.541,�k�k��,1.7,��
2023/05/31,06:40,0.550,0.822,0.495,0.997,0.724,0.324,0.577,0.543,�k��,2.6,��
2023/05/31,06:50,0.550,0.820,0.495,0.999,0.723,0.324,0.578,0.540,�k��,3.1,��
2023/05/31,07:00,0.550,0.819,0.496,0.997,0.724,0.327,0.577,0.543,�k�k��,3.5,��
2023/05/31,07:10,0.549,0.818,0.495,0.996,0.722,0.325,0.577,0.541,�k�k��,3.3,��
2023/05/31,07:20,0.549,0.817,0.495,0.999,0.724,0.325,0.577,0.543,�k�k��,3.6,��
2023/05/31,07:30,0.547,0.816,0.494,0.998,0.724,0.325,0.578,0.542,�k�k��,4.6,��
2023/05/31,07:40,0.550,0.816,0.495,0.999,0.722,0.324,0.577,0.543,�k,4.2,��
2023/05/31,07:50,0.548,0.817,0.494,0.999,0.725,0.322,0.576,0.541,�k�k��,4.9,��
2023/05/31,08:00,0.548,0.817,0.495,0.998,0.724,0.325,0.577,0.539,�k,4.8,��
2023/05/31,08:10,0.548,0.816,0.494,0.999,0.725,0.325,0.576,0.538,�k,4.9,��
2023/05/31,08:20,0.548,0.816,0.494,0.998,0.722,0.323,0.576,0.537,�k,5.2,��
2023/05/31,08:30,0.549,0.817,0.494,0.997,0.722,0.325,0.577,0.537,�k,5.1,��
2023/05/31,08:40,0.547,0.818,0.492,0.997,0.725,0.324,0.576,0.537,�k�k��,4.1,��
2023/05/31,08:50,0.548,0.818,0.493,0.998,0.725,0.324,0.577,0.540,�k�k��,4.4,��
2023/05/31,09:00,0.547,0.818,0.493,0.999,0.724,0.324,0.577,0.539,�k�k��,4.7,��
2023/05/31,09:10,0.550,0.819,0.493,0.998,0.726,0.324,0.576,0.540,�k�k��,4.4,��
2023/05/31,09:20,0.548,0.818,0.493,1.001,0.725,0.324,0.576,0.538,�k�k��,4.2,��
2023/05/31,09:30,0.549,0.818,0.493,0.999,0.725,0.323,0.575,0.539,�k�k��,4.2,��
2023/05/31,09:40,0.549,0.818,0.491,0.998,0.724,0.325,0.576,0.540,�k�k��,4.5,��
2023/05/31,09:50,0.549,0.817,0.492,1.000,0.721,0.324,0.577,0.539,�k��,4.6,��
2023/05/31,10:00,0.550,0.819,0.491,1.001,0.723,0.323,0.575,0.541,�k�k��,4.6,��
2023/05/31,10:10,0.552,0.818,0.494,1.000,0.726,0.324,0.574,0.541,�k�k��,4.3,��
2023/05/31,10:20,0.550,0.820,0.491,1.000,0.725,0.324,0.576,0.541,�k��,4.1,��
2023/05/31,10:30,0.551,0.818,0.491,0.999,0.722,0.325,0.575,0.542,�k�k��,3.8,��
2023/05/31,10:40,0.550,0.819,0.490,1.001,0.725,0.324,0.576,0.541,�k�k��,4.0,��
2023/05/31,10:50,0.550,0.819,0.490,1.001,0.725,0.324,0.577,0.541,�k�k��,4.0,��
2023/05/31,11:00,0.551,0.820,0.490,0.999,0.724,0.324,0.576,0.541,�k,4.5,��
2023/05/31,11:10,0.551,0.820,0.491,1.001,0.725,0.326,0.578,0.541,�k�k��,3.0,��
2023/05/31,11:20,0.551,0.820,0.492,0.998,0.726,0.326,0.577,0.542,�k�k��,3.8,��
2023/05/31,11:30,0.554,0.822,0.493,0.998,0.728,0.326,0.578,0.541,�k��,3.2,��
2023/05/31,11:40,0.551,0.822,0.495,0.996,0.727,0.324,0.577,0.540,�k��,2.8,��
2023/05/31,11:50,0.553,0.823,0.494,0.999,0.727,0.324,0.577,0.542,�k��,3.0,��
2023/05/31,12:00,0.552,0.824,0.496,0.999,0.728,0.326,0.577,0.539,�k��,3.4,��
2023/05/31,12:10,0.552,0.823,0.496,0.997,0.728,0.324,0.577,0.540,�k��,3.0,��
2023/05/31,12:20,0.553,0.824,0.495,0.999,0.728,0.327,0.576,0.542,�k��,2.6,��
2023/05/31,12:30,0.551,0.825,0.496,0.998,0.725,0.325,0.578,0.540,�k��,2.5,��
2023/05/31,12:40,0.552,0.822,0.496,0.999,0.728,0.325,0.576,0.541,���k��,2.3,��
2023/05/31,12:50,0.552,0.821,0.495,0.997,0.728,0.325,0.576,0.540,���k��,2.3,��
2023/05/31,13:00,0.552,0.822,0.495,0.998,0.728,0.326,0.578,0.542,���k��,2.0,��
2023/05/31,13:10,0.551,0.822,0.495,0.999,0.728,0.325,0.578,0.542,���쓌,2.0,��
2023/05/31,13:20,0.550,0.824,0.495,1.000,0.729,0.327,0.578,0.542,��,1.7,��
2023/05/31,13:30,0.553,0.820,0.495,0.997,0.729,0.325,0.577,0.541,��,1.9,��
2023/05/31,13:40,0.553,0.824,0.496,1.000,0.729,0.325,0.577,0.542,�쓌,2.6,��
2023/05/31,13:50,0.553,0.822,0.495,1.000,0.728,0.324,0.576,0.541,���쓌,2.6,��
2023/05/31,14:00,0.553,0.821,0.498,0.999,0.727,0.326,0.577,0.541,���쓌,2.6,��
2023/05/31,14:10,0.552,0.822,0.496,0.998,0.729,0.326,0.576,0.543,���쓌,2.6,��
2023/05/31,14:20,0.553,0.822,0.496,1.004,0.731,0.325,0.577,0.541,�쓌,2.5,��
2023/05/31,14:30,0.555,0.821,0.495,1.000,0.730,0.324,0.577,0.542,�쓌,2.6,��
2023/05/31,14:40,0.553,0.823,0.497,1.001,0.729,0.326,0.578,0.541,���쓌,3.3,��
2023/05/31,14:50,0.554,0.822,0.496,1.001,0.729,0.325,0.578,0.541,���쓌,3.4,��
2023/05/31,15:00,0.552,0.822,0.496,1.000,0.729,0.324,0.578,0.542,�쓌,3.2,��
2023/05/31,15:10,0.554,0.825,0.497,0.998,0.728,0.326,0.579,0.542,��쓌,4.6,��
2023/05/31,15:20,0.554,0.822,0.497,1.000,0.730,0.325,0.579,0.540,�쓌,4.5,��
2023/05/31,15:30,0.555,0.825,0.496,1.002,0.729,0.327,0.577,0.541,��쓌,4.9,��
2023/05/31,15:40,0.555,0.821,0.496,1.000,0.728,0.326,0.579,0.541,��쓌,5.1,��
2023/05/31,15:50,0.553,0.825,0.496,1.002,0.731,0.326,0.579,0.542,��쓌,6.3,��
2023/05/31,16:00,0.553,0.823,0.496,1.002,0.729,0.326,0.580,0.541,��쓌,5.0,��
2023/05/31,16:10,0.553,0.823,0.495,1.002,0.730,0.327,0.579,0.541,��쓌,5.3,��
2023/05/31,16:20,0.553,0.824,0.496,1.003,0.730,0.327,0.580,0.541,��쓌,6.2,��
2023/05/31,16:30,0.554,0.825,0.496,1.000,0.730,0.325,0.577,0.543,��쓌,6.5,��
2023/05/31,16:40,0.554,0.823,0.497,1.001,0.730,0.326,0.579,0.540,��,5.1,��
2023/05/31,16:50,0.556,0.823,0.496,1.001,0.729,0.326,0.579,0.541,��쓌,3.9,��
2023/05/31,17:00,0.553,0.826,0.497,1.002,0.728,0.326,0.580,0.541,��쓌,4.1,��
2023/05/31,17:10,0.554,0.824,0.497,1.001,0.729,0.325,0.577,0.543,��,5.6,��
2023/05/31,17:20,0.554,0.825,0.497,1.001,0.729,0.325,0.579,0.541,��,5.9,��
2023/05/31,17:30,0.556,0.826,0.497,1.005,0.729,0.327,0.576,0.541,��,4.4,��
2023/05/31,17:40,0.555,0.826,0.496,1.003,0.729,0.325,0.577,0.543,��쓌,4.8,��
2023/05/31,17:50,0.555,0.827,0.496,1.004,0.729,0.326,0.578,0.543,��쓌,4.3,��
2023/05/31,18:00,0.555,0.826,0.497,1.004,0.728,0.325,0.577,0.543,��,4.0,��
2023/05/31,18:10,0.554,0.826,0.498,1.006,0.730,0.326,0.577,0.543,��,5.0,��
2023/05/31,18:20,0.555,0.827,0.500,1.006,0.729,0.326,0.577,0.545,��,4.1,��
2023/05/31,18:30,0.555,0.826,0.498,1.005,0.729,0.326,0.577,0.542,��,4.1,��
2023/05/31,18:40,0.556,0.828,0.496,1.004,0.731,0.326,0.578,0.544,��,4.4,��
2023/05/31,18:50,0.557,0.826,0.499,1.006,0.731,0.327,0.580,0.545,��,4.4,��
2023/05/31,19:00,0.556,0.827,0.496,1.004,0.733,0.327,0.580,0.543,��쐼,3.4,��
2023/05/31,19:10,0.556,0.825,0.499,1.003,0.733,0.327,0.578,0.543,��,3.9,��
2023/05/31,19:20,0.556,0.827,0.498,1.005,0.732,0.327,0.578,0.544,��쐼,4.8,��
2023/05/31,19:30,0.557,0.828,0.500,1.005,0.731,0.328,0.579,0.544,��,3.9,��
2023/05/31,19:40,0.557,0.828,0.498,1.004,0.731,0.326,0.578,0.542,��,2.3,��
2023/05/31,19:50,0.557,0.827,0.498,1.005,0.732,0.327,0.580,0.542,��,2.6,��
2023/05/31,20:00,0.558,0.828,0.498,1.006,0.733,0.326,0.579,0.541,��쐼,2.6,��
2023/05/31,20:10,0.556,0.826,0.498,1.005,0.732,0.327,0.578,0.542,��쐼,2.3,��
2023/05/31,20:20,0.556,0.828,0.499,1.004,0.732,0.326,0.579,0.543,��쐼,1.4,��
2023/05/31,20:30,0.556,0.827,0.496,1.007,0.733,0.327,0.578,0.544,��쐼,3.2,��
2023/05/31,20:40,0.556,0.829,0.498,1.004,0.732,0.327,0.579,0.544,��쐼,1.5,��
2023/05/31,20:50,0.557,0.826,0.500,1.004,0.733,0.327,0.580,0.543,��쐼,0.9,��
2023/05/31,21:00,0.556,0.826,0.498,1.004,0.732,0.326,0.578,0.544,�쐼,0.9,��
2023/05/31,21:10,0.556,0.828,0.497,1.006,0.733,0.328,0.579,0.543,�k��,0.6,��
2023/05/31,21:20,0.555,0.827,0.497,1.006,0.732,0.326,0.579,0.542,���k��,1.2,��
2023/05/31,21:30,0.557,0.827,0.499,1.005,0.731,0.328,0.580,0.544,��,1.4,��
2023/05/31,21:40,0.556,0.827,0.498,1.006,0.733,0.328,0.579,0.544,���k��,1.5,��
2023/05/31,21:50,0.555,0.826,0.499,1.005,0.731,0.327,0.580,0.545,���k��,2.3,��
2023/05/31,22:00,0.557,0.826,0.498,1.007,0.732,0.327,0.580,0.543,���k��,2.6,��
2023/05/31,22:10,0.556,0.826,0.497,1.002,0.732,0.327,0.580,0.542,���k��,2.9,��
2023/05/31,22:20,0.556,0.827,0.496,1.007,0.733,0.327,0.581,0.542,���k��,3.0,��
2023/05/31,22:30,0.557,0.827,0.498,1.005,0.732,0.328,0.581,0.543,�k��,3.9,��
2023/05/31,22:40,0.557,0.827,0.498,1.006,0.732,0.327,0.580,0.543,�k��,5.7,��
2023/05/31,22:50,0.557,0.828,0.498,1.005,0.732,0.328,0.579,0.543,�k��,5.7,��
2023/05/31,23:00,0.555,0.827,0.498,1.006,0.733,0.327,0.581,0.544,�k��,6.1,��
2023/05/31,23:10,0.555,0.827,0.497,1.005,0.730,0.325,0.580,0.542,�k��,6.8,��
2023/05/31,23:20,0.553,0.825,0.497,1.002,0.731,0.327,0.581,0.542,�k��,5.9,��
2023/05/31,23:30,0.555,0.826,0.497,1.004,0.731,0.325,0.580,0.542,�k�k��,5.6,��
2023/05/31,23:40,0.554,0.825,0.497,1.005,0.730,0.329,0.581,0.542,�k�k��,5.8,��
2023/05/31,23:50,0.556,0.824,0.496,1.003,0.730,0.327,0.579,0.542,�k�k��,6.1,��
